Time,TemperatureF,DewpointF,PressureIn,WindDirection,WindDirectionDegrees,WindSpeedMPH,WindSpeedGustMPH,Humidity,HourlyPrecipIn,Conditions,Clouds,dailyrainin,SoftwareType,DateUTC
2013-08-05 00:05:00,78.1,76.9,30.04,SW,225,0.0,1.0,96,0.00,,,0.00,Wunderground v.1.15,2013-08-05 04:05:00,
2013-08-05 00:10:00,78.1,76.9,30.04,SW,225,0.0,1.0,96,0.00,,,0.00,Wunderground v.1.15,2013-08-05 04:10:00,
2013-08-05 00:15:00,78.1,76.9,30.04,SW,225,0.0,1.0,96,0.00,,,0.00,Wunderground v.1.15,2013-08-05 04:15:00,
2013-08-05 00:20:00,78.0,76.8,30.04,SW,225,0.0,1.0,96,0.00,,,0.00,Wunderground v.1.15,2013-08-05 04:20:00,
2013-08-05 00:29:00,78.0,76.8,30.04,SW,225,0.0,1.0,96,0.00,,,0.00,Wunderground v.1.15,2013-08-05 04:29:00,
2013-08-05 00:35:00,77.9,76.7,30.05,SW,225,0.0,1.0,96,0.00,,,0.00,Wunderground v.1.15,2013-08-05 04:35:00,
2013-08-05 00:40:00,77.8,76.6,30.05,SW,225,0.0,1.0,96,0.00,,,0.00,Wunderground v.1.15,2013-08-05 04:40:00,
2013-08-05 00:50:00,77.7,76.5,30.04,SW,225,0.0,1.0,96,0.00,,,0.00,Wunderground v.1.15,2013-08-05 04:50:00,
2013-08-05 01:00:00,77.7,76.5,30.04,SW,225,0.0,1.0,96,0.00,,,0.00,Wunderground v.1.15,2013-08-05 05:00:00,
2013-08-05 01:05:00,77.6,76.4,30.04,SW,225,0.0,1.0,96,0.00,,,0.00,Wunderground v.1.15,2013-08-05 05:05:00,
2013-08-05 01:15:00,77.6,76.4,30.04,SW,225,0.0,1.0,96,0.00,,,0.00,Wunderground v.1.15,2013-08-05 05:15:00,
2013-08-05 01:20:00,77.5,76.3,30.04,SW,225,0.0,1.0,96,0.00,,,0.00,Wunderground v.1.15,2013-08-05 05:20:00,
2013-08-05 01:30:00,77.4,76.2,30.03,SW,225,0.0,1.0,96,0.00,,,0.00,Wunderground v.1.15,2013-08-05 05:30:00,
2013-08-05 01:40:00,77.3,76.1,30.03,SW,225,0.0,1.0,96,0.00,,,0.00,Wunderground v.1.15,2013-08-05 05:40:00,
2013-08-05 01:49:00,77.2,76.3,30.03,SW,225,0.0,1.0,97,0.00,,,0.00,Wunderground v.1.15,2013-08-05 05:49:00,
2013-08-05 04:25:00,75.9,75.0,29.99,SW,225,0.0,1.0,97,0.00,,,0.00,Wunderground v.1.15,2013-08-05 08:25:00,
2013-08-05 04:30:00,75.9,75.0,29.99,SW,225,0.0,1.0,97,0.00,,,0.00,Wunderground v.1.15,2013-08-05 08:30:00,
2013-08-05 04:35:00,75.8,74.9,29.99,SW,225,0.0,1.0,97,0.00,,,0.00,Wunderground v.1.15,2013-08-05 08:35:00,
2013-08-05 04:45:00,75.8,75.2,29.99,SW,225,0.0,1.0,98,0.00,,,0.00,Wunderground v.1.15,2013-08-05 08:45:00,
2013-08-05 04:50:00,75.8,75.2,30.00,SW,225,0.0,1.0,98,0.00,,,0.00,Wunderground v.1.15,2013-08-05 08:50:00,
2013-08-05 05:00:00,75.8,75.2,29.99,SW,225,0.0,1.0,98,0.00,,,0.00,Wunderground v.1.15,2013-08-05 09:00:00,
2013-08-05 05:05:00,75.9,75.3,29.99,SW,225,0.0,2.0,98,0.00,,,0.00,Wunderground v.1.15,2013-08-05 09:05:00,
2013-08-05 05:15:00,75.7,75.1,29.99,SW,225,0.0,1.0,98,0.00,,,0.00,Wunderground v.1.15,2013-08-05 09:15:00,
2013-08-05 05:25:00,75.8,75.2,29.99,SW,225,0.0,1.0,98,0.00,,,0.00,Wunderground v.1.15,2013-08-05 09:25:00,
2013-08-05 05:35:00,75.7,75.1,29.99,SW,225,0.0,1.0,98,0.00,,,0.00,Wunderground v.1.15,2013-08-05 09:35:00,
2013-08-05 05:45:00,75.8,75.2,30.00,SW,225,0.0,1.0,98,0.00,,,0.00,Wunderground v.1.15,2013-08-05 09:45:00,
2013-08-05 05:50:00,75.8,75.2,30.00,SW,225,0.0,1.0,98,0.00,,,0.00,Wunderground v.1.15,2013-08-05 09:50:00,
2013-08-05 06:00:00,75.8,75.2,30.00,SW,225,0.0,1.0,98,0.00,,,0.00,Wunderground v.1.15,2013-08-05 10:00:00,
2013-08-05 06:05:00,75.7,75.1,30.00,SW,225,0.0,1.0,98,0.00,,,0.00,Wunderground v.1.15,2013-08-05 10:05:00,
2013-08-05 06:14:00,75.6,75.0,30.00,SW,225,0.0,1.0,98,0.00,,,0.00,Wunderground v.1.15,2013-08-05 10:14:00,
2013-08-05 06:20:00,75.6,75.0,30.01,SW,225,0.0,1.0,98,0.00,,,0.00,Wunderground v.1.15,2013-08-05 10:20:00,
2013-08-05 06:30:00,75.8,75.2,30.01,SW,225,0.0,1.0,98,0.00,,,0.00,Wunderground v.1.15,2013-08-05 10:30:00,
2013-08-05 06:40:00,75.6,75.0,30.01,SW,225,0.0,1.0,98,0.00,,,0.00,Wunderground v.1.15,2013-08-05 10:40:00,
2013-08-05 06:49:00,75.6,75.0,30.01,SW,225,0.0,1.0,98,0.00,,,0.00,Wunderground v.1.15,2013-08-05 10:49:00,
2013-08-05 06:55:00,75.5,74.9,30.01,SW,225,0.0,1.0,98,0.00,,,0.00,Wunderground v.1.15,2013-08-05 10:55:00,
2013-08-05 07:05:00,75.6,75.0,30.02,SW,225,0.0,0.0,98,0.00,,,0.00,Wunderground v.1.15,2013-08-05 11:05:00,
2013-08-05 07:15:00,75.6,75.0,30.02,SW,225,0.0,0.0,98,0.00,,,0.00,Wunderground v.1.15,2013-08-05 11:15:00,
2013-08-05 07:25:00,75.7,75.1,30.02,SW,225,0.0,0.0,98,0.00,,,0.00,Wunderground v.1.15,2013-08-05 11:25:00,
2013-08-05 07:30:00,75.9,75.3,30.02,SW,225,0.0,0.0,98,0.00,,,0.00,Wunderground v.1.15,2013-08-05 11:30:00,
2013-08-05 07:40:00,76.0,75.4,30.03,SW,225,0.0,0.0,98,0.00,,,0.00,Wunderground v.1.15,2013-08-05 11:40:00,
2013-08-05 07:45:00,76.1,75.5,30.02,SW,225,0.0,0.0,98,0.00,,,0.00,Wunderground v.1.15,2013-08-05 11:45:00,
2013-08-05 07:50:00,76.2,75.6,30.02,SW,225,0.0,0.0,98,0.00,,,0.00,Wunderground v.1.15,2013-08-05 11:50:00,
2013-08-05 08:00:00,76.6,76.0,30.02,SW,225,0.0,0.0,98,0.00,,,0.00,Wunderground v.1.15,2013-08-05 12:00:00,
2013-08-05 08:05:00,76.8,76.2,30.03,SW,225,0.0,1.0,98,0.00,,,0.00,Wunderground v.1.15,2013-08-05 12:05:00,
2013-08-05 08:15:00,77.2,76.6,30.03,SW,225,0.0,1.0,98,0.00,,,0.00,Wunderground v.1.15,2013-08-05 12:15:00,
2013-08-05 08:24:00,77.5,76.9,30.03,SW,225,0.0,1.0,98,0.00,,,0.00,Wunderground v.1.15,2013-08-05 12:24:00,
2013-08-05 08:40:00,78.1,77.5,30.03,SW,225,0.0,1.0,98,0.00,,,0.00,Wunderground v.1.15,2013-08-05 12:40:00,
2013-08-05 08:55:00,78.8,77.9,30.04,SW,225,0.0,1.0,97,0.00,,,0.00,Wunderground v.1.15,2013-08-05 12:55:00,
2013-08-05 09:04:00,79.2,78.3,30.03,SW,225,0.0,1.0,97,0.00,,,0.00,Wunderground v.1.15,2013-08-05 13:04:00,
2013-08-05 09:10:00,79.4,78.5,30.03,SW,225,0.0,1.0,97,0.00,,,0.00,Wunderground v.1.15,2013-08-05 13:10:00,
2013-08-05 09:20:00,80.3,79.4,30.03,SW,225,1.0,1.0,97,0.00,,,0.00,Wunderground v.1.15,2013-08-05 13:20:00,
2013-08-05 09:25:00,81.1,80.2,30.04,SW,225,0.0,3.0,97,0.00,,,0.00,Wunderground v.1.15,2013-08-05 13:25:00,
2013-08-05 09:35:00,81.7,80.1,30.03,SW,226,1.0,2.0,95,0.00,,,0.00,Wunderground v.1.15,2013-08-05 13:35:00,
2013-08-05 09:40:00,82.6,80.7,30.03,SW,226,1.0,1.0,94,0.00,,,0.00,Wunderground v.1.15,2013-08-05 13:40:00,
2013-08-05 09:50:00,83.6,80.4,30.03,SW,236,1.0,3.0,90,0.00,,,0.00,Wunderground v.1.15,2013-08-05 13:50:00,
2013-08-05 10:00:00,83.9,80.3,30.04,SW,235,2.0,2.0,89,0.00,,,0.00,Wunderground v.1.15,2013-08-05 14:00:00,
2013-08-05 10:05:00,84.7,80.4,30.03,SW,234,1.0,2.0,87,0.00,,,0.00,Wunderground v.1.15,2013-08-05 14:05:00,
2013-08-05 10:15:00,84.5,80.2,30.03,SW,235,1.0,1.0,87,0.00,,,0.00,Wunderground v.1.15,2013-08-05 14:15:00,
2013-08-05 10:25:00,85.5,80.5,30.03,West,260,2.0,5.0,85,0.00,,,0.00,Wunderground v.1.15,2013-08-05 14:25:00,
2013-08-05 10:30:00,86.3,81.3,30.03,West,267,3.0,3.0,85,0.00,,,0.00,Wunderground v.1.15,2013-08-05 14:30:00,
2013-08-05 10:40:00,87.0,80.5,30.03,NW,318,2.0,2.0,81,0.00,,,0.00,Wunderground v.1.15,2013-08-05 14:40:00,
2013-08-05 10:50:00,86.7,79.8,30.03,WSW,250,4.0,4.0,80,0.00,,,0.00,Wunderground v.1.15,2013-08-05 14:50:00,
2013-08-05 11:00:00,87.6,79.5,30.03,WNW,302,2.0,2.0,77,0.00,,,0.00,Wunderground v.1.15,2013-08-05 15:00:00,
2013-08-05 11:05:00,88.0,79.9,30.03,WSW,252,1.0,3.0,77,0.00,,,0.00,Wunderground v.1.15,2013-08-05 15:05:00,
2013-08-05 11:15:00,88.5,79.6,30.03,WSW,246,3.0,4.0,75,0.00,,,0.00,Wunderground v.1.15,2013-08-05 15:15:00,
2013-08-05 11:25:00,87.8,79.3,30.03,WSW,254,3.0,5.0,76,0.00,,,0.00,Wunderground v.1.15,2013-08-05 15:25:00,
2013-08-05 11:35:00,87.9,79.0,30.03,WNW,292,3.0,3.0,75,0.00,,,0.00,Wunderground v.1.15,2013-08-05 15:35:00,
2013-08-05 11:40:00,88.6,79.7,30.03,WSW,249,3.0,4.0,75,0.00,,,0.00,Wunderground v.1.15,2013-08-05 15:40:00,
2013-08-05 11:50:00,87.7,80.4,30.03,West,269,1.0,4.0,79,0.00,,,0.00,Wunderground v.1.15,2013-08-05 15:50:00,
2013-08-05 11:55:00,88.7,79.8,30.03,West,265,2.0,4.0,75,0.00,,,0.00,Wunderground v.1.15,2013-08-05 15:55:00,
2013-08-05 12:05:00,89.0,79.6,30.03,WNW,282,3.0,4.0,74,0.00,,,0.00,Wunderground v.1.15,2013-08-05 16:05:00,
2013-08-05 12:10:00,88.8,79.4,30.03,West,261,2.0,2.0,74,0.00,,,0.00,Wunderground v.1.15,2013-08-05 16:10:00,
2013-08-05 12:20:00,89.6,78.5,30.02,North,353,1.0,1.0,70,0.00,,,0.00,Wunderground v.1.15,2013-08-05 16:20:00,
2013-08-05 12:25:00,90.1,79.0,30.02,West,269,2.0,2.0,70,0.00,,,0.00,Wunderground v.1.15,2013-08-05 16:25:00,
2013-08-05 12:34:00,90.6,79.9,30.02,NW,308,2.0,2.0,71,0.00,,,0.00,Wunderground v.1.15,2013-08-05 16:34:00,
2013-08-05 12:40:00,90.4,78.4,30.02,West,260,2.0,9.0,68,0.00,,,0.00,Wunderground v.1.15,2013-08-05 16:40:00,
2013-08-05 12:50:00,90.0,78.5,30.02,West,273,3.0,3.0,69,0.00,,,0.00,Wunderground v.1.15,2013-08-05 16:50:00,
2013-08-05 13:00:00,89.4,79.6,30.01,WNW,284,1.0,1.0,73,0.00,,,0.00,Wunderground v.1.15,2013-08-05 17:00:00,
2013-08-05 13:10:00,89.5,79.3,30.00,West,276,1.0,1.0,72,0.00,,,0.00,Wunderground v.1.15,2013-08-05 17:10:00,
2013-08-05 13:15:00,90.6,79.0,30.00,West,269,1.0,5.0,69,0.00,,,0.00,Wunderground v.1.15,2013-08-05 17:15:00,
2013-08-05 13:25:00,92.2,78.3,30.00,West,267,4.0,6.0,64,0.00,,,0.00,Wunderground v.1.15,2013-08-05 17:25:00,
2013-08-05 13:30:00,91.9,79.4,30.00,West,273,4.0,7.0,67,0.00,,,0.00,Wunderground v.1.15,2013-08-05 17:30:00,
2013-08-05 13:35:00,89.9,77.0,30.01,NNE,20,5.0,8.0,66,0.00,,,0.00,Wunderground v.1.15,2013-08-05 17:35:00,
2013-08-05 13:45:00,83.4,75.0,30.01,West,275,7.0,9.0,76,0.00,,,0.00,Wunderground v.1.15,2013-08-05 17:45:00,
2013-08-05 13:55:00,78.9,75.4,29.99,WSW,255,4.0,6.0,89,0.13,,,0.14,Wunderground v.1.15,2013-08-05 17:55:00,
2013-08-05 14:05:00,81.8,79.9,29.99,West,277,2.0,5.0,94,0.04,,,0.14,Wunderground v.1.15,2013-08-05 18:05:00,
2013-08-05 14:15:00,82.6,78.0,29.98,West,264,3.0,4.0,86,0.00,,,0.14,Wunderground v.1.15,2013-08-05 18:15:00,
2013-08-05 14:20:00,84.2,79.6,29.99,West,267,2.0,2.0,86,0.00,,,0.14,Wunderground v.1.15,2013-08-05 18:20:00,
2013-08-05 14:30:00,84.6,77.7,30.00,WNW,284,1.0,3.0,80,0.00,,,0.14,Wunderground v.1.15,2013-08-05 18:30:00,
2013-08-05 14:40:00,86.0,79.5,29.99,West,276,2.0,2.0,81,0.00,,,0.14,Wunderground v.1.15,2013-08-05 18:40:00,
2013-08-05 14:50:00,87.3,80.0,29.98,WNW,292,2.0,6.0,79,0.00,,,0.14,Wunderground v.1.15,2013-08-05 18:50:00,
2013-08-05 14:55:00,87.7,79.6,29.98,WSW,254,3.0,6.0,77,0.00,,,0.14,Wunderground v.1.15,2013-08-05 18:55:00,
2013-08-05 15:05:00,89.0,79.2,29.96,NNW,338,3.0,5.0,73,0.00,,,0.14,Wunderground v.1.15,2013-08-05 19:05:00,
2013-08-05 15:15:00,89.4,78.3,29.96,WNW,282,4.0,5.0,70,0.00,,,0.14,Wunderground v.1.15,2013-08-05 19:15:00,
2013-08-05 15:20:00,89.7,78.2,29.96,West,273,3.0,3.0,69,0.00,,,0.14,Wunderground v.1.15,2013-08-05 19:20:00,
2013-08-05 15:30:00,90.4,78.8,29.96,West,267,3.0,3.0,69,0.00,,,0.14,Wunderground v.1.15,2013-08-05 19:30:00,
2013-08-05 15:35:00,91.1,79.9,29.96,West,260,1.0,6.0,70,0.00,,,0.14,Wunderground v.1.15,2013-08-05 19:35:00,
2013-08-05 15:45:00,90.5,76.7,29.96,WNW,283,3.0,3.0,64,0.00,,,0.14,Wunderground v.1.15,2013-08-05 19:45:00,
2013-08-05 16:00:00,91.3,78.3,29.96,WNW,288,4.0,12.0,66,0.00,,,0.14,Wunderground v.1.15,2013-08-05 20:00:00,
2013-08-05 16:10:00,91.2,78.2,29.95,West,275,5.0,5.0,66,0.00,,,0.14,Wunderground v.1.15,2013-08-05 20:10:00,
2013-08-05 16:20:00,91.2,78.7,29.94,WSW,248,3.0,3.0,67,0.00,,,0.14,Wunderground v.1.15,2013-08-05 20:20:00,
2013-08-05 16:25:00,91.4,78.9,29.94,WNW,296,4.0,4.0,67,0.00,,,0.14,Wunderground v.1.15,2013-08-05 20:25:00,
2013-08-05 16:35:00,91.1,79.5,29.94,West,270,5.0,5.0,69,0.00,,,0.14,Wunderground v.1.15,2013-08-05 20:35:00,
2013-08-05 16:40:00,90.8,78.8,29.94,WSW,241,5.0,5.0,68,0.00,,,0.14,Wunderground v.1.15,2013-08-05 20:40:00,
2013-08-05 16:50:00,90.4,78.8,29.94,West,264,5.0,6.0,69,0.00,,,0.14,Wunderground v.1.15,2013-08-05 20:50:00,
2013-08-05 16:55:00,89.9,78.4,29.94,WSW,248,6.0,6.0,69,0.00,,,0.14,Wunderground v.1.15,2013-08-05 20:55:00,
2013-08-05 17:05:00,90.2,78.2,29.93,West,277,5.0,5.0,68,0.00,,,0.14,Wunderground v.1.15,2013-08-05 21:05:00,
2013-08-05 17:15:00,90.4,77.5,29.93,West,277,4.0,7.0,66,0.00,,,0.14,Wunderground v.1.15,2013-08-05 21:15:00,
2013-08-05 17:25:00,90.8,75.5,29.94,West,279,4.0,6.0,61,0.00,,,0.14,Wunderground v.1.15,2013-08-05 21:25:00,
2013-08-05 17:35:00,89.4,76.5,29.94,West,274,2.0,4.0,66,0.00,,,0.14,Wunderground v.1.15,2013-08-05 21:35:00,
2013-08-05 17:40:00,88.6,75.3,29.94,SW,217,2.0,4.0,65,0.00,,,0.14,Wunderground v.1.15,2013-08-05 21:40:00,
2013-08-05 17:50:00,87.7,75.8,29.95,WSW,243,2.0,2.0,68,0.00,,,0.14,Wunderground v.1.15,2013-08-05 21:50:00,
2013-08-05 18:00:00,86.0,76.7,29.95,SE,136,0.0,1.0,74,0.00,,,0.14,Wunderground v.1.15,2013-08-05 22:00:00,
2013-08-05 18:05:00,85.0,77.0,29.95,ESE,115,0.0,1.0,77,0.00,,,0.14,Wunderground v.1.15,2013-08-05 22:05:00,
2013-08-05 18:15:00,83.9,77.1,29.96,East,89,0.0,1.0,80,0.00,,,0.14,Wunderground v.1.15,2013-08-05 22:15:00,
2013-08-05 18:20:00,83.4,77.0,29.96,East,90,0.0,1.0,81,0.00,,,0.14,Wunderground v.1.15,2013-08-05 22:20:00,
2013-08-05 18:30:00,82.9,77.2,29.96,NE,45,0.0,1.0,83,0.00,,,0.14,Wunderground v.1.15,2013-08-05 22:30:00,
2013-08-05 18:35:00,82.4,76.7,29.97,NE,37,1.0,10.0,83,0.00,,,0.14,Wunderground v.1.15,2013-08-05 22:35:00,
2013-08-05 18:45:00,80.5,74.9,29.97,NNW,331,3.0,3.0,83,0.00,,,0.14,Wunderground v.1.15,2013-08-05 22:45:00,
2013-08-05 18:50:00,79.1,74.2,29.99,North,3,4.0,8.0,85,3.74,,,0.24,Wunderground v.1.15,2013-08-05 22:50:00,
2013-08-05 19:00:00,76.1,73.3,29.99,NNE,26,3.0,3.0,91,3.49,,,0.50,Wunderground v.1.15,2013-08-05 23:00:00,
2013-08-05 19:05:00,75.5,73.0,29.99,ENE,67,1.0,3.0,92,0.86,,,0.63,Wunderground v.1.15,2013-08-05 23:05:00,
2013-08-05 19:15:00,75.5,73.7,29.98,ESE,121,0.0,1.0,94,0.12,,,0.67,Wunderground v.1.15,2013-08-05 23:15:00,
2013-08-05 19:25:00,75.7,74.2,29.99,SE,139,1.0,4.0,95,0.04,,,0.67,Wunderground v.1.15,2013-08-05 23:25:00,
2013-08-05 19:35:00,75.3,73.5,29.99,East,94,1.0,1.0,94,0.00,,,0.67,Wunderground v.1.15,2013-08-05 23:35:00,
2013-08-05 19:45:00,75.4,73.9,29.99,East,94,0.0,1.0,95,0.00,,,0.67,Wunderground v.1.15,2013-08-05 23:45:00,
2013-08-05 19:50:00,75.3,73.8,29.99,East,94,0.0,1.0,95,0.00,,,0.67,Wunderground v.1.15,2013-08-05 23:50:00,
2013-08-05 20:00:00,75.3,73.8,29.99,East,94,0.0,1.0,95,0.00,,,0.67,Wunderground v.1.15,2013-08-06 00:00:00,
2013-08-05 20:10:00,75.3,73.8,29.98,East,95,0.0,1.0,95,0.00,,,0.67,Wunderground v.1.15,2013-08-06 00:10:00,
2013-08-05 20:20:00,75.1,73.9,29.98,East,95,0.0,1.0,96,0.00,,,0.67,Wunderground v.1.15,2013-08-06 00:20:00,
2013-08-05 20:25:00,75.0,73.8,29.98,East,95,0.0,1.0,96,0.00,,,0.67,Wunderground v.1.15,2013-08-06 00:25:00,
2013-08-05 20:35:00,74.8,73.6,29.98,East,95,0.0,1.0,96,0.00,,,0.67,Wunderground v.1.15,2013-08-06 00:35:00,
2013-08-05 20:40:00,74.7,73.5,29.98,East,95,0.0,1.0,96,0.00,,,0.67,Wunderground v.1.15,2013-08-06 00:40:00,
2013-08-05 20:50:00,74.5,73.3,30.00,East,95,0.0,1.0,96,0.00,,,0.67,Wunderground v.1.15,2013-08-06 00:50:00,
2013-08-05 21:00:00,74.6,73.4,30.00,East,95,0.0,1.0,96,0.00,,,0.67,Wunderground v.1.15,2013-08-06 01:00:00,
2013-08-05 21:10:00,74.6,73.4,30.00,East,98,0.0,1.0,96,0.00,,,0.67,Wunderground v.1.15,2013-08-06 01:10:00,
2013-08-05 21:20:00,74.3,73.1,30.00,East,101,0.0,1.0,96,0.00,,,0.67,Wunderground v.1.15,2013-08-06 01:20:00,
2013-08-05 21:30:00,74.2,73.0,30.00,East,101,0.0,1.0,96,0.00,,,0.67,Wunderground v.1.15,2013-08-06 01:30:00,
2013-08-05 21:40:00,74.2,73.0,30.00,ESE,103,0.0,1.0,96,0.00,,,0.67,Wunderground v.1.15,2013-08-06 01:40:00,
2013-08-05 21:45:00,74.1,72.9,30.00,ESE,109,0.0,1.0,96,0.00,,,0.67,Wunderground v.1.15,2013-08-06 01:45:00,
2013-08-05 21:55:00,74.1,72.9,30.01,ESE,110,0.0,1.0,96,0.00,,,0.67,Wunderground v.1.15,2013-08-06 01:55:00,
2013-08-05 22:05:00,74.1,72.9,30.02,ESE,110,0.0,1.0,96,0.00,,,0.67,Wunderground v.1.15,2013-08-06 02:05:00,
2013-08-05 22:15:00,73.8,72.6,30.02,SSE,166,0.0,1.0,96,0.00,,,0.67,Wunderground v.1.15,2013-08-06 02:15:00,
2013-08-05 22:20:00,73.7,72.5,30.02,South,170,0.0,1.0,96,0.00,,,0.67,Wunderground v.1.15,2013-08-06 02:20:00,
2013-08-05 22:30:00,73.6,72.4,30.02,South,170,0.0,1.0,96,0.00,,,0.67,Wunderground v.1.15,2013-08-06 02:30:00,
2013-08-05 22:35:00,73.6,72.4,30.02,South,170,0.0,1.0,96,0.00,,,0.67,Wunderground v.1.15,2013-08-06 02:35:00,
2013-08-05 22:50:00,73.7,72.5,30.02,South,170,0.0,1.0,96,0.00,,,0.67,Wunderground v.1.15,2013-08-06 02:50:00,
2013-08-05 22:55:00,73.7,72.5,30.02,South,170,0.0,1.0,96,0.00,,,0.67,Wunderground v.1.15,2013-08-06 02:55:00,
2013-08-05 23:05:00,74.0,72.8,30.02,South,170,0.0,1.0,96,0.00,,,0.67,Wunderground v.1.15,2013-08-06 03:05:00,
2013-08-05 23:10:00,74.0,72.8,30.02,South,170,0.0,1.0,96,0.00,,,0.67,Wunderground v.1.15,2013-08-06 03:10:00,
2013-08-05 23:20:00,73.9,73.0,30.02,South,170,0.0,1.0,97,0.00,,,0.67,Wunderground v.1.15,2013-08-06 03:20:00,
2013-08-05 23:25:00,73.9,73.0,30.02,South,170,0.0,1.0,97,0.00,,,0.67,Wunderground v.1.15,2013-08-06 03:25:00,
2013-08-05 23:35:00,73.9,73.0,30.02,South,170,0.0,1.0,97,0.00,,,0.67,Wunderground v.1.15,2013-08-06 03:35:00,
2013-08-05 23:40:00,73.9,73.0,30.01,South,170,0.0,1.0,97,0.00,,,0.67,Wunderground v.1.15,2013-08-06 03:40:00,
2013-08-05 23:50:00,74.0,73.1,30.01,South,170,0.0,1.0,97,0.00,,,0.67,Wunderground v.1.15,2013-08-06 03:50:00,